Weather History for Kansas City International, MO

Change the Weather History Date:

Monday, May 27, 2013

  Actual Average Record
Temperature  
Mean Temperature 70 °F 68 °F  
Max Temperature 78 °F 78 °F 94 °F (2006)
Min Temperature 61 °F 58 °F 38 °F (1992)
Degree Days  
Heating Degree Days 0 2  
Month to date heating degree days 156 99  
Since 1 July heating degree days 5185 5119  
Cooling Degree Days 5 4  
Month to date cooling degree days 72 67  
Year to date cooling degree days 85 95  
Growing Degree Days 18 (Base 50)    
Moisture  
Dew Point 62 °F    
Average Humidity 83    
Maximum Humidity 97    
Minimum Humidity 68    
Precipitation  
Precipitation 2.26 in 0.17 in 2.26 in (2013)
Month to date precipitation 5.17 4.56  
Year to date precipitation 13.64 13.16  
Snow  
Snow 0.00 in 0.00 in 0.00 in ()
Month to date snowfall 0.5 0.0  
Since 1 July snowfall 31.8 18.8  
Snow Depth 0.00 in    
Sea Level Pressure  
Sea Level Pressure 29.81 in    
Wind  
Wind Speed 15 mph (ESE)    
Max Wind Speed 26 mph    
Max Gust Speed 35 mph    
Visibility 8 miles    
Events Rain , Thunderstorm    
T = Trace of Precipitation, MM = Missing Value Source: NWS Daily Summary

Daily Weather History Graph

Daily Weather History Graph

Search for Another Location

Airport:

Trip Planner

Search our weather history database for the weather conditions in past years. The results will help you decide how hot, cold, wet, or windy it might be!

Date:

Astronomy

May. 27, 2013 Rise Set
Actual Time 5:56 AM CDT 8:36 PM CDT
Civil Twilight 5:25 AM CDT 9:07 PM CDT
Nautical Twilight 4:46 AM CDT 9:46 PM CDT
Astronomical Twilight 4:02 AM CDT 10:30 PM CDT
Moon 11:16 PM CDT (5/27) 8:34 AM CDT (5/27)
Length of Visible Light 15h 42m
Length of Day
14h 39m
Waning Gibbous, 91% of the Moon is Illuminated
May 27
Waning Gibbous
May 31
Last Quarter
Jun 8
New
Jun 16
First Quarter
Jun 23
Full

Hourly Weather History & Observations

Time (CDT) Temp. Dew Point Humidity Pressure Visibility Wind Dir Wind Speed Gust Speed Precip Events Conditions
12:53 AM 73.9 °F 63.0 °F 68% 29.91 in 10.0 mi SSE 11.5 mph - N/A   Overcast
1:53 AM 73.9 °F 63.0 °F 68% 29.91 in 10.0 mi SE 10.4 mph - N/A   Scattered Clouds
2:53 AM 72.0 °F 62.1 °F 71% 29.89 in 10.0 mi SE 12.7 mph - N/A   Overcast
3:53 AM 71.1 °F 62.1 °F 73% 29.87 in 10.0 mi SE 10.4 mph - N/A   Overcast
4:53 AM 70.0 °F 62.1 °F 76% 29.84 in 10.0 mi SE 12.7 mph - N/A   Overcast
5:53 AM 71.1 °F 62.1 °F 73% 29.80 in 10.0 mi SSE 17.3 mph 24.2 mph N/A   Overcast
6:53 AM 70.0 °F 62.1 °F 76% 29.80 in 10.0 mi South 17.3 mph - N/A   Overcast
7:28 AM 69.8 °F 62.6 °F 78% 29.88 in 10.0 mi North 24.2 mph 31.1 mph 0.01 in Rain , Thunderstorm Light Thunderstorms and Rain
7:33 AM 64.4 °F 60.8 °F 88% 29.91 in 1.8 mi NNW 20.7 mph 31.1 mph 0.06 in Rain , Thunderstorm Heavy Thunderstorms and Rain
7:40 AM 62.6 °F 60.8 °F 94% 29.89 in 0.5 mi NNE 16.1 mph 27.6 mph 0.47 in Rain , Thunderstorm Heavy Thunderstorms and Rain
7:53 AM 62.1 °F 61.0 °F 96% 29.86 in 0.5 mi NE 8.1 mph - 1.02 in Rain , Thunderstorm Heavy Thunderstorms and Rain
8:21 AM 62.6 °F 60.8 °F 94% 29.86 in 0.5 mi ENE 13.8 mph - 0.35 in Rain , Thunderstorm Heavy Thunderstorms and Rain
8:39 AM 62.6 °F 60.8 °F 94% 29.87 in 4.0 mi NE 12.7 mph 24.2 mph 0.40 in Rain , Thunderstorm Light Thunderstorms and Rain
8:53 AM 63.0 °F 61.0 °F 93% 29.88 in 4.0 mi NNE 15.0 mph 19.6 mph 0.49 in Rain , Thunderstorm Heavy Thunderstorms and Rain
9:22 AM 62.6 °F 60.8 °F 94% 29.88 in 4.0 mi NE 16.1 mph 24.2 mph 0.13 in Rain , Thunderstorm Thunderstorms and Rain
9:34 AM 62.6 °F 60.8 °F 94% 29.89 in 1.0 mi ENE 15.0 mph 24.2 mph 0.21 in Rain , Thunderstorm Heavy Thunderstorms and Rain
9:53 AM 61.0 °F 59.0 °F 93% 29.85 in 1.0 mi East 25.3 mph 29.9 mph 0.50 in Rain , Thunderstorm Thunderstorms and Rain
10:08 AM 62.6 °F 59.0 °F 88% 29.88 in 5.0 mi East 21.9 mph 34.5 mph 0.05 in Rain , Thunderstorm Light Thunderstorms and Rain
10:36 AM 60.8 °F 59.0 °F 94% 29.91 in 5.0 mi North 16.1 mph 26.5 mph 0.13 in Rain , Thunderstorm Thunderstorms and Rain
10:38 AM 60.8 °F 59.0 °F 94% 29.92 in 5.0 mi North 15.0 mph 26.5 mph 0.13 in Rain Rain
10:53 AM 62.1 °F 59.0 °F 90% 29.92 in 9.0 mi North 15.0 mph 24.2 mph 0.16 in Rain Light Rain
10:55 AM 62.6 °F 59.0 °F 88% 29.94 in 6.0 mi North 15.0 mph 24.2 mph 0.00 in Rain , Thunderstorm Light Thunderstorms and Rain
11:31 AM 62.6 °F 59.0 °F 88% 29.90 in 10.0 mi ENE 15.0 mph 24.2 mph 0.06 in Rain Light Rain
11:51 AM 62.6 °F 59.0 °F 88% 29.89 in 10.0 mi East 20.7 mph 24.2 mph 0.06 in Rain , Thunderstorm Light Thunderstorms and Rain
11:53 AM 63.0 °F 59.0 °F 87% 29.86 in 9.0 mi East 20.7 mph 24.2 mph 0.06 in Rain , Thunderstorm Light Thunderstorms and Rain
12:43 PM 62.6 °F 60.8 °F 94% 29.82 in 8.0 mi SSE 16.1 mph 21.9 mph 0.03 in Thunderstorm Thunderstorm
12:48 PM 62.6 °F 60.8 °F 94% 29.82 in 10.0 mi SSE 21.9 mph 28.8 mph 0.03 in   Overcast
12:53 PM 63.0 °F 61.0 °F 93% 29.80 in 10.0 mi SSE 21.9 mph 28.8 mph 0.03 in   Mostly Cloudy
1:53 PM 68.0 °F 62.1 °F 81% 29.75 in 10.0 mi SSE 19.6 mph 29.9 mph N/A   Overcast
2:02 PM 69.8 °F 62.6 °F 78% 29.77 in 10.0 mi SSE 20.7 mph 26.5 mph N/A   Overcast
2:53 PM 72.0 °F 64.0 °F 76% 29.74 in 10.0 mi SSE 15.0 mph - N/A   Mostly Cloudy
3:53 PM 73.9 °F 64.9 °F 73% 29.72 in 10.0 mi SE 11.5 mph - N/A   Scattered Clouds
4:13 PM 73.4 °F 64.4 °F 73% 29.73 in 10.0 mi SSE 12.7 mph - N/A   Mostly Cloudy
4:53 PM 73.9 °F 64.9 °F 73% 29.70 in 10.0 mi SSE 9.2 mph - N/A   Overcast
5:53 PM 75.9 °F 68.0 °F 76% 29.68 in 10.0 mi SE 6.9 mph - N/A   Overcast
6:31 PM 75.2 °F 68.0 °F 78% 29.70 in 10.0 mi SE 9.2 mph - N/A   Overcast
6:53 PM 75.9 °F 68.0 °F 76% 29.67 in 10.0 mi SE 9.2 mph - N/A   Mostly Cloudy
7:53 PM 77.0 °F 66.9 °F 71% 29.69 in 10.0 mi South 10.4 mph - N/A   Overcast
8:53 PM 77.0 °F 66.0 °F 69% 29.67 in 10.0 mi South 16.1 mph 23.0 mph N/A   Overcast
9:53 PM 77.0 °F 66.0 °F 69% 29.70 in 10.0 mi South 12.7 mph - N/A   Overcast
10:53 PM 75.9 °F 66.0 °F 71% 29.69 in 10.0 mi South 21.9 mph 26.5 mph N/A   Overcast
11:53 PM 75.9 °F 64.9 °F 69% 29.66 in 10.0 mi South 19.6 mph 31.1 mph N/A   Overcast